K4KJQ-13 Weather Reports


time (UTC)temp
C
wind
direction
speed
KPH
gust
KPH
rain 1hr
cm
rain 24hr
cm
rain mn
cm
humidity
%
barometer
mb
20260503213613 18 315 4.8 22.5 0.00 0.00 0.00 100
20260503213113 18 288 12.9 29.0 0.00 0.00 0.00 100
20260503212613 18 320 6.4 22.5 0.00 0.00 0.00 100
20260503212113 18 295 17.7 22.5 0.00 0.00 0.00 100
20260503211613 17 291 11.3 33.8 0.00 0.00 0.00 100
20260503211113 18 302 12.9 32.2 0.00 0.00 0.00 100
20260503210613 17 286 14.5 24.1 0.00 0.00 0.00 100
20260503210113 17 291 11.3 27.4 0.00 0.00 0.00 100
20260503205613 18 298 12.9 29.0 0.00 0.00 0.00 100
20260503205113 18 300 17.7 25.7 0.00 0.00 0.00 100
20260503204613 17 305 12.9 30.6 0.00 0.00 0.00 100
20260503204113 17 293 12.9 20.9 0.00 0.00 0.00 100
20260503203613 18 292 11.3 27.4 0.00 0.00 0.00 100
20260503203113 18 307 9.7 19.3 0.00 0.00 0.00 100
20260503202613 18 309 12.9 19.3 0.00 0.00 0.00 100
20260503202113 17 299 8.0 24.1 0.00 0.00 0.00 100
20260503201613 18 305 9.7 22.5 0.00 0.00 0.00 100
20260503201113 17 326 8.0 24.1 0.00 0.00 0.00 100
20260503200613 17 300 4.8 29.0 0.00 0.00 0.00 100
20260503200113 17 305 11.3 29.0 0.00 0.00 0.00 100
20260503195613 17 312 9.7 24.1 0.00 0.00 0.00 100
20260503195113 17 289 17.7 24.1 0.00 0.00 0.00 100
20260503194613 17 296 9.7 20.9 0.00 0.00 0.00 100
20260503194113 17 317 12.9 19.3 0.00 0.00 0.00 100
20260503193613 17 282 11.3 22.5 0.00 0.00 0.00 100
20260503193113 17 298 11.3 22.5 0.00 0.00 0.00 100
20260503192613 17 324 4.8 19.3 0.00 0.00 0.00 100
20260503192113 17 285 4.8 20.9 0.00 0.00 0.00 100
20260503191613 17 305 17.7 19.3 0.00 0.00 0.00 100
20260503191113 17 298 12.9 22.5 0.00 0.00 0.00 100
20260503190613 17 307 6.4 19.3 0.00 0.00 0.00 100
20260503190113 17 302 12.9 20.9 0.00 0.00 0.00 100
20260503185613 17 291 6.4 14.5 0.00 0.00 0.00 100
20260503185113 17 299 11.3 24.1 0.00 0.00 0.00 100
20260503184613 17 310 6.4 20.9 0.00 0.00 0.00 100
20260503184113 17 240 12.9 16.1 0.00 0.00 0.00 100
20260503183613 16 312 9.7 16.1 0.00 0.00 0.00 100
20260503183113 16 298 8.0 17.7 0.00 0.00 0.00 100
20260503182613 16 309 11.3 19.3 0.00 0.00 0.00 100
20260503182113 16 288 9.7 29.0 0.00 0.00 0.00 100
20260503181613 17 271 3.2 20.9 0.00 0.00 0.00 100
20260503181113 16 312 12.9 19.3 0.00 0.00 0.00 100
20260503180614 17 295 8.0 16.1 0.00 0.00 0.00 100
20260503180113 16 324 11.3 20.9 0.00 0.00 0.00 100
20260503175614 16 299 14.5 19.3 0.00 0.00 0.00 100
20260503175114 16 329 11.3 16.1 0.00 0.00 0.00 100
20260503174614 16 288 12.9 20.9 0.00 0.00 0.00 100
20260503174114 15 291 9.7 19.3 0.00 0.00 0.00 100
20260503173614 16 302 1.6 17.7 0.00 0.00 0.00 100
20260503173114 15 293 8.0 16.1 0.00 0.00 0.00 100
20260503172614 15 305 4.8 14.5 0.00 0.00 0.00 100
20260503172114 16 302 9.7 20.9 0.00 0.00 0.00 100
20260503171614 16 278 17.7 25.7 0.00 0.00 0.00 100
20260503171114 16 129 0.0 20.9 0.00 0.00 0.00 100
20260503170614 16 306 14.5 16.1 0.00 0.00 0.00 100
20260503170114 15 302 8.0 22.5 0.00 0.00 0.00 100
20260503160114 15 307 4.8 14.5 0.00 0.00 0.00 100
20260503150614 13 284 4.8 16.1 0.00 0.00 0.00 100
20260503150114 13 303 1.6 17.7 0.00 0.00 0.00 100
20260503140114 12 300 8.0 12.9 0.00 0.00 0.00 100
20260503131114 11 281 1.6 9.7 0.00 0.00 0.00 100
20260503130614 10 300 8.0 8.0 0.00 0.00 0.00 100
20260503130114 10 300 0.0 9.7 0.00 0.00 0.00 100
20260503120114 7 282 4.8 9.7 0.00 0.00 0.00 100
20260503110614 3 282 3.2 3.2 0.00 0.00 0.00 100
20260503110114 2 296 3.2 3.2 0.00 0.00 0.00 100
20260503100114 1 277 0.0 3.2 0.00 0.00 0.00 100
20260503090114 2 293 1.6 3.2 0.00 0.00 0.00 100
20260503081614 1 270 1.6 3.2 0.00 0.00 0.00 100
20260503081114 1 296 1.6 3.2 0.00 0.00 0.00 100
20260503080614 1 272 0.0 1.6 0.00 0.00 0.00 100
20260503080114 1 282 1.6 3.2 0.00 0.00 0.00 100
20260503072614 1 285 0.0 1.6 0.00 0.00 0.00 100
20260503072114 1 264 0.0 0.0 0.00 0.00 0.00 100
20260503071614 1 264 0.0 0.0 0.00 0.00 0.00 100
20260503071114 1 264 0.0 0.0 0.00 0.00 0.00 100
20260503070614 1 264 0.0 0.0 0.00 0.00 0.00 100
20260503070114 2 264 0.0 0.0 0.00 0.00 0.00 100
20260503060114 2 35 0.0 0.0 0.00 0.00 0.00 100
20260503055114 2 35 0.0 0.0 0.00 0.00 0.00 100
20260503054614 2 35 0.0 0.0 0.00 0.00 0.00 100
20260503054114 2 35 0.0 0.0 0.00 0.00 0.00 100
20260503053614 2 35 0.0 0.0 0.00 0.00 0.00 100
20260503053114 2 35 0.0 0.0 0.00 0.00 0.00 100
20260503052614 2 35 0.0 0.0 0.00 0.00 0.00 100
20260503052114 2 35 0.0 0.0 0.00 0.00 0.00 100
20260503051614 3 35 0.0 0.0 0.00 0.00 0.00 100
20260503051114 3 35 0.0 0.0 0.00 0.00 0.00 100
20260503050614 3 35 0.0 0.0 0.00 0.00 0.00 100
20260503050114 4 35 0.0 0.0 0.00 0.00 0.00 100
20260503045614 4 35 0.0 0.0 0.00 0.00 0.00 100
20260503045114 5 35 0.0 0.0 0.00 0.00 0.00 100
20260503044614 5 35 0.0 1.6 0.00 0.00 0.00 100
20260503044114 5 61 0.0 1.6 0.00 0.00 0.00 100
20260503043614 5 78 0.0 1.6 0.00 0.00 0.00 100
20260503043114 6 29 0.0 0.0 0.00 0.00 0.00 100
20260503042614 6 29 0.0 3.2 0.00 0.00 0.00 100
20260503042114 6 340 0.0 3.2 0.00 0.00 0.00 100
20260503041614 6 45 1.6 6.4 0.00 0.00 0.00 100
20260503041114 6 12 3.2 8.0 0.00 0.00 0.00 100
20260503040614 7 49 3.2 11.3 0.00 0.00 0.00 100
20260503040114 6 57 4.8 6.4 0.00 0.00 0.00 100
20260503035614 6 42 0.0 8.0 0.00 0.00 0.00 100
20260503035114 7 35 3.2 8.0 0.00 0.00 0.00 100
20260503034614 7 57 6.4 8.0 0.00 0.00 0.00 100
20260503034114 6 16 4.8 9.7 0.00 0.00 0.00 100
20260503033614 6 28 4.8 6.4 0.00 0.00 0.00 100
20260503033114 6 37 3.2 6.4 0.00 0.00 0.00 100
20260503032614 6 28 0.0 3.2 0.00 0.00 0.00 100
20260503032114 6 11 0.0 6.4 0.00 0.00 0.00 100
20260503031614 6 12 0.0 0.0 0.00 0.00 0.00 100
20260503031114 6 70 0.0 3.2 0.00 0.00 0.00 100
20260503030614 7 11 0.0 1.6 0.00 0.00 0.00 100
20260503030114 7 23 0.0 1.6 0.00 0.00 0.00 100
20260503025614 7 36 0.0 3.2 0.00 0.00 0.00 100
20260503025114 7 5 0.0 3.2 0.00 0.00 0.00 100
20260503024614 7 11 0.0 3.2 0.00 0.00 0.00 100
20260503024114 7 11 0.0 4.8 0.00 0.00 0.00 100
20260503023614 7 15 0.0 3.2 0.00 0.00 0.00 100
20260503023114 8 355 1.6 4.8 0.00 0.00 0.00 100
20260503022614 7 18 3.2 4.8 0.00 0.00 0.00 100
20260503022114 7 57 0.0 1.6 0.00 0.00 0.00 100
20260503021614 8 39 0.0 0.0 0.00 0.00 0.00 100
20260503021114 8 39 0.0 3.2 0.00 0.00 0.00 100
20260503020614 8 47 1.6 3.2 0.00 0.00 0.00 100
20260503020114 8 25 1.6 3.2 0.00 0.00 0.00 100
20260503015614 8 47 3.2 4.8 0.00 0.00 0.00 100
20260503015114 8 14 0.0 3.2 0.00 0.00 0.00 100
20260503014614 8 7 0.0 1.6 0.00 0.00 0.00 100
20260503014114 8 23 0.0 1.6 0.00 0.00 0.00 100
20260503013614 8 11 0.0 1.6 0.00 0.00 0.00 100
20260503013114 8 16 0.0 6.4 0.00 0.00 0.00 100
20260503012614 9 340 1.6 4.8 0.00 0.00 0.00 100
20260503012114 8 351 0.0 4.8 0.00 0.00 0.00 100
20260503011614 9 28 3.2 4.8 0.00 0.00 0.00 100
20260503011114 9 7 0.0 8.0 0.00 0.00 0.00 100
20260503010614 9 327 4.8 6.4 0.00 0.00 0.00 100
20260503010114 10 19 0.0 1.6 0.00 0.00 0.00 100
20260503005614 10 18 0.0 1.6 0.00 0.00 0.00 100
20260503005114 9 1 1.6 3.2 0.00 0.00 0.00 100
20260503004614 10 4 1.6 6.4 0.00 0.00 0.00 100
20260503004114 10 22 0.0 3.2 0.00 0.00 0.00 100
20260503003614 10 42 0.0 4.8 0.00 0.00 0.00 100
20260503003114 10 19 0.0 9.7 0.00 0.00 0.00 100
20260503002614 10 315 3.2 9.7 0.00 0.00 0.00 100
20260503002114 10 7 6.4 8.0 0.00 0.00 0.00 100
20260503001614 11 350 4.8 6.4 0.00 0.00 0.00 100
20260503001114 10 350 1.6 9.7 0.00 0.00 0.00 100
20260503000614 10 45 4.8 11.3 0.00 0.00 0.00 100
20260503000114 11 358 4.8 11.3 0.00 0.00 0.00 100
20260502235614 10 352 8.0 9.7 0.00 0.00 0.00 100
20260502235114 11 343 6.4 9.7 0.00 0.00 0.00 100
20260502234614 11 351 3.2 9.7 0.00 0.00 0.00 100
20260502234114 11 347 9.7 11.3 0.00 0.00 0.00 100
20260502233614 11 11 3.2 12.9 0.00 0.00 0.00 100
20260502233114 11 307 3.2 14.5 0.00 0.00 0.00 100
20260502232614 12 340 4.8 14.5 0.00 0.00 0.00 100
20260502232114 13 341 6.4 12.9 0.00 0.00 0.00 100
20260502231614 13 358 9.7 14.5 0.00 0.00 0.00 100
20260502231114 12 345 6.4 14.5 0.00 0.00 0.00 100
20260502230614 12 354 12.9 17.7 0.00 0.00 0.00 100
20260502230114 12 9 12.9 19.3 0.00 0.00 0.00 100
20260502225614 12 358 6.4 16.1 0.00 0.00 0.00 100
20260502225114 13 330 0.0 11.3 0.00 0.00 0.00 100
20260502224614 13 358 9.7 12.9 0.00 0.00 0.00 100
20260502224114 12 316 3.2 16.1 0.00 0.00 0.00 100
20260502223614 12 350 4.8 16.1 0.00 0.00 0.00 100
20260502223114 12 358 4.8 8.0 0.00 0.00 0.00 100
20260502222614 12 0 4.8 11.3 0.00 0.00 0.00 100
20260502222114 12 338 4.8 16.1 0.00 0.00 0.00 100
20260502221614 12 8 8.0 11.3 0.00 0.00 0.00 100
20260502221114 12 26 0.0 12.9 0.00 0.00 0.00 100
20260502220614 12 46 4.8 17.7 0.00 0.00 0.00 100
20260502220114 12 19 12.9 12.9 0.00 0.00 0.00 100
20260502215614 13 358 9.7 14.5 0.00 0.00 0.00 100
20260502215114 12 313 4.8 14.5 0.00 0.00 0.00 100
20260502214614 12 358 8.0 14.5 0.00 0.00 0.00 100
20260502214114 12 33 6.4 14.5 0.00 0.00 0.00 100